Reflectivity
-20 -20 -20 -20 -20 -20 -20 -20 -20 -20 -20 -20 -20 -20 -20 -20 -20 -20 -20 -20 -20 -20 -20 -20 -20 -20 -20 -20 -20 -20 -20 -20 -20 -20 -20 -20 -20 -20 -20 -20 -20 -20 -20 -20
-20 -20 -20 -20 -20 -20 -20 -20 -20 -20 -20 -20 -20 -20 -20 -20 -20 -20 -20 -20 -20 -20 -20 -20 -20 -20 -20 -20 -20 -20 -20 -20 -20 -20 -20 -20 -20 -20 -20 -20 -20 -20 -20 -20
-20 -20 -20 -20 -20 -20 -20 -20 -20 -20 -20 -20 -20 -20 -20 -20 -20 -20 -20 -20 -20 -20 -20 -20 -20 -20 -20 -20 -20 -20 -20 -20 -20 -20 -20 -20 -20 -20 -20 -20 -20 -20 -20 -20
-20 -20 -20 -20 -20 -20 -20 -20 -20 -20 -20 -20 -20 -20 -20 -20 -20 -20 -20 -20 -20 -20 -20 -20 -20 -20 -20 -20 -20 -20 -20 -20 -20 -20 -20 -20 -20 -20 -20 -20 -20 -20 -20 -20
-20 -20 -20 -20 -20 -20 -20 -20 -20 -20 -20 -20 -20 -20 -20 -20 -20 -20 -20 -20 -20 -20 -20 -20 -20 -20 -20 -20 -20 -20 -20 -20 -20 -20 -20 -20 -20 -20 -20 -20 -20 -20 -20 -20
-20 -20 -20 -20 -20 -20 -20 -20 -20 -20 -20 -20 -20 -20 -20 -20 -20 -20 -20 -20 -20 -20 -20 -20 -20 -20 -20 -20 -20 -20 -20 -20 -20 -20 -20 -20 -20 -20 -20 -20 -20 -20 -20 -20
-20 -20 -20 -20 -20 -20 -20 -20 -20 -20 -20 -20 -20 -20 -20 -20 -20 -20 -20 -20 -20 -20 -20 -20 -20 -20 -20 -20 -20 -20 -20 -20 -20 -20 -20 -20 -20 -20 -20 -20 -20 -20 -20 -20
-2 -20 -20 -20 -20 -20 -20 -20 -20 -20 -20 -20 -20 -20 -20 -20 -20 -20 -20 -20 -20 -20 -20 -20 -20 -20 -20 -20 -20 -20 -20 -20 -20 -20 -20 -20 -20 -20 -20 -20 -20 -20 -20 -20
-20 -20 -20 -20 -20 -20 -20 -20 -20 -20 -20 -20 -20 -20 -20 -20 -20 -20 -20 -20 -20 -20 -20 -20 -20 -20 -20 -20 -20 -20 -20 -20 -20 -20 -20 -20 -20 -20 -20 -20 -20 -20 -20 -20
-20 -20 -20 -20 -20 -20 -20 -20 -20 -20 -20 -20 -20 -20 -20 -20 -20 -20 -20 -20 -20 -20 -20 -20 -20 -20 -20 -20 -20 -20 -20 -20 -20 -20 -20 -20 -20 -20 -20 -20 -20 -20 -20 -20
-20 -20 8 -20 -20 -20 -20 -19 -20 -20 -20 -20 -20 -20 -20 -20 -20 -20 -20 -20 -20 -20 -20 -20 -20 -20 -20 -20 -20 -20 -20 -20 -20 -20 -20 -20 -20 -20 -20 -20 -20 -20 -20 -20
15 -20 7 -20 -20 -20 -20 -20 -20 -20 -20 -20 -20 -20 -20 -20 -20 -20 -20 -20 -20 -20 -20 -20 -20 -20 -20 -20 -20 -20 -20 -20 -20 -20 -20 -20 -20 -20 -20 -20 -20 -20 -20 -20
5 3 8 -9 -14 -3 -20 -19 -20 -20 -20 -20 -20 -20 -18 -19 -18 -19 -20 -20 -20 -20 -20 -20 -20 -20 -20 -20 -20 -20 -20 -20 -20 -20 -20 -20 -20 -20 -20 -20 -20 -20 -20 -20
-3 -16 -20 -20 -20 -3 -19 -5 -2 -17 -17 -20 -20 -20 -15 -9 -19 -20 -20 -20 -20 -20 -20 -20 -20 -20 -20 -20 -20 -20 -20 -20 -20 -20 -20 -20 -20 -20 -20 -20 -20 -20 -20 -20
2 -2 -10 -20 -18 -8 12 -20 -15 -13 2 11 13 -12 -9 -16 -16 -9 -14 -20 -6 -8 -20 -20 -20 -20 -20 -20 -20 -20 -20 -20 -20 -20 -20 -20 -20 -20 -20 -20 -20 -20 -20 -9
-5 -12 -16 -11 -3 1 13 15 4 9 12 28 34 22 -15 10 23 18 13 5 1 1 -20 -20 -20 -20 -20 -20 -20 -20 -19 -19 -20 -20 -20 -20 -20 -20 -20 -20 -20 -12 -19 -20
-10 1 5 7 16 21 21 25 18 19 30 31 28 29 9 -1 3 20 28 27 21 -2 -20 -9 -20 -20 -3 -2 -20 -20 -20 -20 -20 -20 -20 -20 -20 -20 -20 -20 -20 -20 -20 -20
17 23 29 26 23 18 14 31 30 29 32 33 23 17 -20 -15 -3 16 24 21 13 15 -7 8 -11 -11 -20 -5 -20 -20 -20 -20 -20 -20 -20 -20 -20 -20 -20 -20 -20 -20 -20 -20
33 35 32 28 22 25 18 29 28 27 30 27 23 -20 -20 -20 -20 -20 -14 -3 -4 -13 -17 -6 0 -20 -20 -20 -20 -20 -20 -20 -20 -20 -20 -20 -20 -20 -20 -20 -20 -20 -20 -20
29 28 34 27 35 30 10 29 33 33 34 26 2 -18 -20 -20 -20 -19 -15 -16 -19 -20 -20 -20 -9 -19 -20 -20 -20 -20 -20 -20 -20 -20 -20 -20 -20 -20 -20 -20 -20 -20 -20 -20
25 33 19 30 32 29 32 19 15 11 -9 -3 3 -20 -20 -19 -16 3 2 -19 -20 -20 -20 -20 -20 -20 -20 -20 -20 -20 -20 -20 -20 -20 -20 -20 -20 -20 -20 -20 -20 -20 -20 -20
11 12 21 23 16 16 14 11 -7 -20 -20 -20 -20 -19 -9 3 -4 -17 -20 -20 -20 -20 -20 -20 -20 -20 -20 -20 -20 -20 -20 -20 -20 -20 -20 -20 -20 -20 -20 -20 -20 -20 -20 -20
2 5 7 13 14 6 -9 -20 -20 -20 -20 -20 -15 2 -6 -19 -20 -20 -20 -20 -20 -20 -20 -20 -20 -20 -20 -20 -20 -20 -20 -20 -20 -20 -20 -20 -20 -20 -20 -20 -20 -20 -20 -20
-8 -8 -7 -8 -11 -12 -20 -18 7 6 -4 -20 -20 -20 -20 -20 -20 -20 -20 -20 -20 -20 -20 -20 -20 -20 -20 -20 -20 -20 -20 -20 -20 -20 -20 -20 -20 -20 -20 -20 -20 -20 -20 -20
-20 -20 -20 -20 -20 -20 -20 -20 -20 -20 -20 -20 -20 -20 -20 -20 -20 -20 -20 -20 -20 -20 -20 -20 -20 -20 -20 -20 -20 -20 -20 -20 -20 -20 -20 -20 -20 -20 -20 -20 -20 -20 -20 -20
-20 -20 -20 -20 -20 -20 -20 -20 -20 -20 -20 -20 -20 -20 -20 -20 -20 -20 -20 -20 -20 -20 -20 -20 -20 -20 -20 -20 -20 -20 -20 -20 -20 -20 -20 -20 -20 -20 -20 -20 -20 -20 -20 -20
9 -20 -20 -20 -20 -20 -20 -20 -20 -20 -20 -20 -20 -20 -20 -20 -20 -20 -20 -20 -20 -20 -20 -20 -20 -20 -20 -20 -20 -20 -20 -20 -20 -20 -20 -20 -20 -20 -20 -20 -20 -20 -20 -20
Wind_Speed
12 14 14 17 18 20 4 1 3 1 3 5 2 2 1 3 0 2 3 0 0 1 2 5 4 3 2 7 4 5 3 5 3 0 2 1 1 1 3 5 2 3 4 6
12 13 13 15 15 13 2 2 3 1 4 3 1 2 2 2 1 0 2 1 0 2 1 3 1 1 2 5 3 2 4 3 3 6 5 3 1 1 4 5 3 1 4 6
12 12 12 13 14 10 2 2 3 5 4 1 7 4 3 2 1 1 1 2 2 2 1 1 2 1 2 2 2 5 2 3 3 5 1 2 1 2 2 5 5 4 6 5
10 11 11 13 15 13 3 2 2 4 1 3 1 3 6 3 1 2 1 2 0 2 2 0 2 2 3 0 3 2 3 2 2 4 5 2 4 5 5 6 4 6 2 2
10 10 10 12 15 14 3 2 2 2 2 2 1 1 4 6 2 3 2 1 0 2 2 2 1 4 5 2 3 2 1 1 1 2 3 0 6 7 8 4 2 7 6 5
10 10 9 9 13 10 2 1 1 4 2 2 5 3 2 3 5 1 2 1 2 1 2 1 2 2 2 2 1 3 2 2 3 3 4 7 2 1 4 4 5 5 3 2
12 10 9 7 7 6 1 2 3 4 4 3 5 5 4 4 2 3 1 2 1 1 4 4 2 1 1 2 6 2 2 2 2 3 7 4 4 4 4 6 5 6 7 5
13 11 10 8 4 6 0 1 2 4 3 3 2 5 5 6 3 2 3 1 2 1 3 4 5 4 2 4 5 5 4 3 2 3 1 8 3 3 2 2 2 4 6 4
13 12 11 10 6 2 0 1 2 3 4 5 2 4 4 3 4 1 3 2 1 2 2 2 2 4 4 2 1 5 4 5 4 2 3 6 2 1 1 1 1 1 4 4
15 13 13 11 9 6 2 2 2 3 3 3 2 4 6 4 2 3 3 3 2 2 3 2 4 4 1 3 4 4 3 2 4 2 3 8 3 3 2 3 6 4 4 3
16 14 14 12 11 9 4 2 2 3 2 3 2 3 4 2 2 4 4 4 1 2 3 4 4 3 3 0 4 6 7 6 5 3 3 9 5 2 4 4 2 4 4 3
15 13 12 12 12 12 6 2 1 2 2 3 0 1 1 1 2 5 2 2 3 5 3 1 2 1 0 3 3 1 2 7 5 9 6 3 4 4 3 6 5 3 4 2
14 13 13 13 13 14 9 3 4 2 2 2 2 3 2 4 4 1 4 2 2 2 2 3 2 2 4 3 5 2 2 2 3 2 0 3 0 4 5 4 5 4 3 2
17 16 16 15 14 15 11 3 3 3 3 2 2 1 4 3 4 3 3 4 2 4 2 2 2 2 2 3 2 2 4 2 2 4 6 6 6 5 6 5 5 4 3 1
17 18 17 17 16 15 8 2 2 2 3 3 2 3 2 3 4 6 4 4 4 2 2 2 3 2 1 1 1 4 4 8 4 7 4 4 3 5 4 5 5 4 2 3
15 15 16 18 18 16 4 2 3 3 3 3 3 2 3 4 5 6 6 3 2 2 3 3 2 2 3 2 3 6 7 4 4 4 2 3 6 7 5 5 7 4 3 3
14 16 15 16 19 6 3 3 1 5 4 4 2 2 1 1 3 2 2 3 2 2 2 2 2 2 3 2 4 6 6 8 9 4 4 2 4 5 6 5 3 3 3 4
16 15 18 22 23 14 4 3 4 2 5 2 3 3 2 2 2 2 0 2 1 1 1 1 1 0 0 5 9 3 6 5 1 6 4 3 2 2 4 3 3 2 3 4
23 21 18 7 5 3 3 4 8 4 3 4 3 6 4 0 2 2 2 2 2 1 1 2 2 3 6 11 1 4 2 3 4 6 6 5 5 4 4 3 3 4 6 6
13 5 4 3 1 7 4 4 3 3 1 1 2 2 4 2 2 2 3 2 2 2 2 1 2 3 11 4 5 6 7 7 7 4 4 4 3 5 4 5 5 5 6 7
3 4 3 3 2 3 3 3 2 2 2 1 2 2 5 3 3 3 2 2 1 2 2 2 2 4 3 4 3 4 5 6 7 6 2 4 4 3 3 6 6 7 8 9
5 7 6 2 3 3 5 1 2 2 4 1 3 3 3 2 2 3 1 3 3 2 1 3 3 5 3 4 5 7 5 5 2 2 2 3 3 2 4 6 8 9 10 11
3 4 4 3 1 4 6 6 3 3 3 3 3 3 3 2 3 3 3 4 3 2 2 4 5 4 4 5 4 5 5 6 5 6 5 5 6 6 6 10 11 10 11 12
4 4 3 2 1 1 3 3 4 2 5 7 5 3 3 2 3 3 5 2 3 2 2 6 4 3 5 5 4 3 5 6 5 5 5 7 7 9 10 8 9 10 12 13
3 4 2 1 2 3 1 2 3 2 5 4 4 4 3 2 4 1 4 4 1 5 5 4 4 3 3 3 2 1 4 5 6 5 6 8 9 9 12 11 10 10 12 13
4 5 4 2 4 3 3 3 2 1 3 3 3 4 4 1 4 3 4 6 6 5 4 4 2 3 4 4 5 6 6 6 6 7 7 9 10 12 13 14 12 12 12 13
3 3 1 2 2 3 3 3 3 1 3 3 4 5 5 3 4 1 4 7 5 4 4 3 4 6 7 7 7 7 7 7 7 7 8 11 11 10 10 14 14 12 13 12
Wind_Direction
311 317 329 330 338 342 48 38 33 229 99 52 56 74 30 337 357 278 297 265 316 134 15 14 33 25 335 345 327 332 351 125 86 269 249 234 229 21 85 102 337 37 119 281
302 311 323 328 337 5 41 347 243 25 85 107 56 251 58 13 258 304 309 299 24 289 294 117 116 111 286 353 38 60 349 344 87 348 347 312 149 154 117 113 85 165 117 265
293 304 317 324 329 351 97 63 358 331 50 190 135 154 179 186 192 281 312 301 318 286 209 185 93 131 230 349 3 306 332 73 140 182 205 114 178 180 184 121 112 200 215 177
280 296 314 321 324 331 120 44 232 208 295 328 63 127 170 144 243 226 194 271 224 350 338 332 98 353 137 231 287 321 87 101 52 293 278 258 225 215 193 172 204 161 230 96
266 287 305 318 323 334 76 142 127 14 249 150 60 358 218 185 161 154 222 198 11 11 50 30 285 0 29 58 336 34 25 232 60 304 32 355 245 228 227 241 236 274 258 301
249 263 283 311 328 343 114 266 54 102 254 211 116 214 220 147 125 74 105 38 55 252 131 258 203 209 242 259 31 357 39 77 31 299 316 282 22 327 177 162 184 176 197 236
240 244 262 285 326 358 183 209 115 102 267 173 208 167 143 152 131 139 138 37 83 171 313 274 185 289 271 32 13 70 45 65 70 287 350 13 254 45 90 113 43 12 75 80
227 228 236 252 278 333 196 226 131 136 240 191 167 153 142 129 130 151 144 93 163 308 20 30 3 343 4 32 43 17 47 74 55 87 286 292 101 1 42 113 49 6 91 65
219 213 220 231 224 271 267 223 137 124 132 244 120 154 167 174 169 122 144 123 73 68 83 84 177 230 231 232 19 10 65 77 103 126 156 236 276 221 99 122 266 71 105 72
210 211 212 215 216 194 159 232 138 101 165 254 144 172 180 161 137 137 140 174 118 82 117 155 199 249 209 219 188 155 93 66 182 201 242 281 224 206 338 126 219 163 117 90
205 203 199 201 207 195 152 230 164 136 207 260 173 176 142 106 131 158 183 84 298 87 161 164 223 182 235 19 161 174 165 146 200 183 209 269 175 134 189 193 153 123 111 118
189 185 188 198 198 191 163 191 181 135 135 280 101 91 63 73 109 136 183 188 150 182 117 204 119 193 112 166 244 210 211 189 188 189 217 214 173 199 217 170 158 140 132 128
177 187 194 198 201 186 171 172 156 103 107 302 316 189 96 49 26 345 137 286 148 107 165 151 155 218 120 186 238 228 303 120 231 55 192 123 253 47 115 95 104 103 94 78
183 197 203 199 199 189 171 165 174 111 122 189 247 344 59 359 17 55 60 129 85 98 67 102 113 192 132 223 225 172 214 355 229 274 309 339 67 103 134 111 103 94 65 37
187 199 203 198 195 184 173 137 198 151 156 158 146 107 31 31 64 75 78 110 101 105 84 111 207 242 161 247 73 219 204 240 237 262 212 204 224 154 129 118 126 153 199 264
181 182 183 183 178 153 136 181 198 159 131 120 182 46 36 42 75 78 72 84 81 102 148 192 218 249 146 173 221 253 236 258 267 264 224 208 165 173 179 185 187 210 203 229
144 161 160 160 158 142 151 156 57 167 136 107 165 188 38 32 106 62 64 24 76 119 165 218 188 219 206 236 239 244 261 270 272 178 169 239 206 220 189 194 180 177 196 227
120 135 128 125 111 119 70 22 4 106 87 148 157 118 128 260 134 102 159 118 104 104 111 89 190 292 308 265 237 307 285 296 204 186 195 172 176 195 208 170 180 219 271 280
100 99 92 82 43 90 106 160 65 55 82 158 153 150 168 249 72 101 59 69 120 19 162 212 189 157 223 240 114 265 283 223 223 208 208 206 227 240 246 241 265 261 270 266
112 59 71 92 29 111 110 23 51 56 34 63 121 115 119 124 155 118 110 48 113 154 241 107 248 265 260 296 275 283 279 255 212 174 223 238 230 229 251 255 263 255 269 277
60 89 73 91 128 70 54 88 98 104 78 107 103 96 126 357 109 104 30 144 100 86 255 141 282 264 260 355 343 315 303 292 230 210 192 189 166 203 247 282 271 270 265 258
125 108 100 83 45 62 97 60 55 111 151 85 96 102 96 96 125 103 355 110 54 204 77 70 267 259 290 358 336 330 342 354 44 157 205 257 285 293 269 271 263 254 254 265
61 65 77 100 310 86 169 169 284 125 152 159 131 111 115 84 63 71 90 90 186 74 70 232 233 261 321 337 333 338 344 356 354 353 352 329 295 279 246 263 266 265 271 275
70 96 73 113 0 253 173 151 136 137 121 125 113 98 112 119 75 126 101 196 73 64 232 239 258 266 308 333 332 20 348 351 340 318 293 290 284 283 284 270 272 273 277 283
70 65 128 139 154 51 53 87 81 30 112 102 90 56 89 64 87 56 104 46 253 207 228 234 238 260 288 300 302 335 313 306 300 288 291 291 293 287 289 289 283 274 279 282
49 48 63 351 66 1 22 45 86 33 112 91 57 100 72 55 118 81 197 132 220 242 219 233 245 275 285 271 276 278 279 288 294 294 284 286 289 290 289 293 289 286 283 283
65 20 4 126 115 164 168 129 156 172 78 108 97 92 185 79 65 221 188 201 213 214 238 229 239 255 270 272 267 270 274 280 275 280 287 279 283 286 288 290 293 288 282 277